"Time","Temp","Dewpoint","Humidity","Pressure","Direction","Speed","Gust","Precip","PrecipRate"
"00:04:57","80.6","73.1","77.8","29.86","200","0.7","3.5","0.00","0.00"
"00:09:58","80.5","73","78","29.86","200","0.9","2.4","0.00","0.00"
"00:14:57","80.4","72.9","78","29.86","200","0.4","2.4","0.00","0.00"
"00:19:56","80.3","72.8","78","29.86","200","0.5","2.4","0.00","0.00"
"00:24:56","80.2","73.1","78.9","29.86","200","0.3","2.4","0.00","0.00"
"00:29:56","80","73.2","79.7","29.86","200","0.6","2.4","0.00","0.00"
"00:34:57","79.8","73","79.7","29.86","200","0.5","2.4","0.00","0.00"
"00:39:58","79.8","73.1","80","29.86","200","0","0","0.00","0.00"
"00:44:59","79.7","73","80","29.86","200","0.2","1.2","0.00","0.00"
"00:49:58","79.4","72.9","80.5","29.84","200","0.3","1.2","0.00","0.00"
"00:54:58","79","72.8","81.1","29.84","200","0.4","1.2","0.00","0.00"
"00:59:57","78.7","72.7","82","29.84","199","0.3","1.2","0.00","0.00"
"01:04:59","78.7","72.7","82","29.82","198","0.5","2.4","0.00","0.00"
"01:09:56","78.8","72.8","82","29.82","188","2.1","6","0.00","0.00"
"01:14:58","78.9","72.9","82","29.82","184","1.6","4.8","0.00","0.00"
"01:19:58","78.9","72.9","82","29.81","220","1","3.6","0.00","0.00"
"01:24:57","78.9","72.9","82","29.81","215","1.4","3.6","0.00","0.00"
"01:29:57","78.9","72.9","82","29.81","214","2","4.8","0.00","0.00"
"01:34:58","78.9","72.9","82","29.81","215","0.2","2.4","0.00","0.00"
"01:39:58","78.8","72.8","82","29.81","215","0.2","1.2","0.00","0.00"
"01:44:57","78.6","72.9","82.7","29.81","227","0.9","3.6","0.00","0.00"
"01:49:58","78.3","72.7","83","29.81","226","1.1","3.6","0.00","0.00"
"01:54:57","77.9","72.7","84","29.81","204","1.6","3.6","0.00","0.00"
"01:59:59","77.4","72.5","84.8","29.83","204","0.6","3.6","0.00","0.00"
"02:04:56","77.2","72.4","85.2","29.83","265","1.6","4.8","0.00","0.00"
"02:09:56","77.3","72.4","85","29.83","295","0.5","2.4","0.00","0.00"
"02:14:59","77.4","72.5","85","29.83","292","1.2","2.4","0.00","0.00"
"02:19:57","77.5","72.6","85","29.82","241","0.9","3.6","0.00","0.00"
"02:24:59","77.4","72.5","85","29.82","232","0","0","0.00","0.00"
"02:29:57","77.3","72.4","85","29.82","232","0.3","2.4","0.00","0.00"
"02:34:56","77.1","72.2","85","29.82","232","0.4","2.3","0.00","0.00"
"02:39:59","76.9","72.3","85.8","29.82","232","0.3","2.4","0.00","0.00"
"02:44:58","76.6","72.1","86","29.82","234","1.3","3.6","0.00","0.00"
"02:49:56","76.6","72.1","86","29.82","235","0.4","2.4","0.00","0.00"
"02:54:59","76.7","72.2","86","29.82","234","0.3","2.4","0.00","0.00"
"02:59:57","76.7","72.2","86","29.82","234","0.8","2.4","0.00","0.00"
"03:04:56","76.5","72.2","86.8","29.82","234","0.7","2.4","0.00","0.00"
"03:09:56","76.2","72","87","29.82","234","0","1.2","0.00","0.00"
"03:14:56","76","71.8","87","29.82","234","0","1.2","0.00","0.00"
"03:19:58","75.8","71.9","87.7","29.82","234","0","1.2","0.00","0.00"
"03:24:57","75.7","71.9","88","29.82","234","0.1","1.2","0.00","0.00"
"03:29:59","75.6","71.8","88","29.82","234","0","0","0.00","0.00"
"03:34:58","75.5","71.8","88.3","29.82","234","0","1.2","0.00","0.00"
"03:39:57","75.5","72","89","29.82","234","1","2.4","0.00","0.00"
"03:44:59","75.5","72","89","29.82","234","0","0","0.00","0.00"
"03:49:57","75.5","72","89","29.81","235","0","0","0.00","0.00"
"03:54:58","75.4","71.9","89","29.81","234","0","0","0.00","0.00"
"03:59:58","75.2","71.7","89","29.81","235","0","0","0.00","0.00"
"04:04:58","75.1","71.8","89.4","29.81","254","0.5","3.6","0.00","0.00"
"04:09:58","75.1","72","89.9","29.81","269","0.2","3.5","0.00","0.00"
"04:14:59","75.2","71.7","89","29.82","269","0","0","0.00","0.00"
"04:19:57","75.3","71.8","89","29.82","301","0.6","3.6","0.00","0.00"
"04:24:59","75.3","71.8","89","29.82","302","0","1.2","0.00","0.00"
"04:29:56","75.3","71.8","89","29.83","302","0.4","1.2","0.00","0.00"
"04:34:56","75.3","71.8","89","29.83","302","0.2","1.2","0.00","0.00"
"04:39:56","75.2","71.7","89","29.83","302","0","1.2","0.00","0.00"
"04:44:58","75.1","71.6","89","29.83","302","0","1.2","0.00","0.00"
"04:49:59","75","71.5","89","29.83","302","0","1.2","0.00","0.00"
"04:54:58","74.7","71.2","89","29.83","302","0.3","2.4","0.00","0.00"
"04:59:59","74.5","71","89","29.83","302","0","1.2","0.00","0.00"
"05:04:57","74.3","70.8","89","29.83","302","0.1","1.2","0.00","0.00"
"05:09:57","74.1","70.7","89.2","29.83","302","0.1","1.2","0.00","0.00"
"05:14:56","74","70.7","89.5","29.83","302","0","1.2","0.00","0.00"
"05:19:59","73.8","70.4","89","29.83","302","0","1.2","0.00","0.00"
"05:24:57","73.7","70.6","89.8","29.83","301","0","1.2","0.00","0.00"
"05:29:59","73.5","70.4","90","29.84","302","0","0","0.00","0.00"
"05:34:57","73.2","70.2","90.4","29.84","302","0","0","0.00","0.00"
"05:39:56","73","70.2","91","29.84","302","0","0","0.00","0.00"
"05:44:58","72.7","70.1","91.5","29.85","302","0.2","1.2","0.00","0.00"
"05:49:59","72.5","70","92","29.85","302","0","0","0.00","0.00"
"05:54:57","72.3","69.8","92","29.85","301","0.7","2.4","0.00","0.00"
"05:59:59","72.1","69.7","92.3","29.86","302","1.5","3.6","0.00","0.00"
"06:04:56","71.9","69.6","92.6","29.86","301","0.7","3.5","0.00","0.00"
"06:09:57","71.7","69.6","93","29.86","302","0","1.2","0.00","0.00"
"06:14:57","71.6","69.7","93.5","29.86","302","0","0","0.00","0.00"
"06:19:59","71.5","69.4","93.2","29.86","302","0","0","0.00","0.00"
"06:24:58","71.3","69.3","93.3","29.86","302","0","0","0.00","0.00"
"06:29:56","71.2","69.4","94","29.87","302","0","0","0.00","0.00"
"06:34:58","71.1","69.3","94","29.87","302","0","0","0.00","0.00"
"06:39:57","71.1","69.3","94","29.87","302","0","0","0.00","0.00"
"06:44:56","71","69.2","94","29.87","302","0","0","0.00","0.00"
"06:49:59","70.9","69.4","94.7","29.87","302","0","0","0.00","0.00"
"06:54:57","71","69.5","95","29.87","302","0","0","0.00","0.00"
"06:59:58","71.1","69.6","95","29.87","302","0.5","2.4","0.00","0.00"
"07:04:56","71.2","69.7","95","29.87","302","0.8","3.6","0.00","0.00"
"07:09:59","71.4","69.9","95","29.87","302","0.4","2.4","0.00","0.00"
"07:14:57","71.8","70.3","95","29.88","302","0.1","1.2","0.00","0.00"
"07:19:59","72.1","70.4","94.3","29.88","301","0","1.2","0.00","0.00"
"07:24:56","72.4","70.6","94","29.88","302","1.1","2.4","0.00","0.00"
"07:29:56","72.8","71","94","29.89","302","1.6","3.6","0.00","0.00"
"07:34:58","73.2","71.2","93.3","29.89","302","0.2","2.3","0.00","0.00"
"07:39:59","73.6","71.4","92.7","29.89","302","0","1.2","0.00","0.00"
"07:44:56","74.1","71.6","92","29.89","302","0.4","3.6","0.00","0.00"
"07:49:57","74.6","72","91.4","29.89","302","0","0","0.00","0.00"
"07:54:58","75.2","72.4","90.9","29.89","302","0.2","1.2","0.00","0.00"
"07:59:56","75.8","72.6","90","29.90","302","1.5","3.6","0.00","0.00"
"08:04:57","76.3","72.5","88.2","29.90","302","1.7","3.6","0.00","0.00"
"08:09:56","77","72.7","86.7","29.90","302","0.6","3.5","0.00","0.00"
"08:14:59","77.7","72.9","85.1","29.91","302","0","0","0.00","0.00"
"08:19:56","78.5","72.6","82.2","29.91","269","0.6","2.4","0.00","0.00"
"08:24:59","79.3","72.2","79.2","29.91","227","0.9","3.6","0.00","0.00"
"08:29:57","79.9","72.4","78.1","29.91","198","1.8","4.8","0.00","0.00"
"08:34:56","80.2","72.3","76.8","29.91","192","0.4","3.5","0.00","0.00"
"08:39:56","80.6","72.2","76","29.91","192","0.9","4.8","0.00","0.00"
"08:44:59","80.9","72.2","75","29.91","208","1.2","4.8","0.00","0.00"
"08:49:57","81.2","72.1","74.2","29.91","244","1.3","3.6","0.00","0.00"
"08:54:56","81.5","72.4","74.1","29.91","239","1","3.6","0.00","0.00"
"08:59:59","81.9","72.8","74","29.92","201","1.2","3.6","0.00","0.00"
"09:04:57","82.2","72.8","73.3","29.92","220","2.3","6","0.00","0.00"
"09:09:59","82.5","73","73.2","29.92","212","1.6","6","0.00","0.00"
"09:14:59","82.9","73.3","73","29.92","344","1.2","6","0.00","0.00"
"09:19:57","83.3","73.4","72.2","29.91","1","2","6","0.00","0.00"
"09:24:59","83.5","73.3","71.4","29.91","337","1.1","3.6","0.00","0.00"
"09:29:58","83.6","73.1","70.7","29.91","258","2.7","8.4","0.00","0.00"
"09:34:56","83.7","72.9","70.1","29.91","2","2.1","8.4","0.00","0.00"
"09:39:59","83.7","72.7","69.7","29.91","345","3.4","7.2","0.00","0.00"
"09:44:58","83.5","72.5","69.5","29.91","354","2.8","6.9","0.00","0.00"
"09:49:56","83.4","72.5","69.8","29.91","338","3","7.2","0.00","0.00"
"09:54:59","83.3","72.3","69.5","29.91","350","2.2","8.4","0.00","0.00"
"09:59:57","83.5","72.8","70.2","29.91","1","1.7","6","0.00","0.00"
"10:04:59","83.9","72.6","68.9","29.91","338","4.2","9.6","0.00","0.00"
"10:09:57","84.3","73.1","69.2","29.91","353","3.3","8.4","0.00","0.00"
"10:14:56","84.6","72.5","67.2","29.92","351","2.9","8.1","0.00","0.00"
"10:19:58","85","72.9","67.2","29.92","241","2.2","7.2","0.00","0.00"
"10:24:58","85.1","72.5","66.2","29.92","308","3.8","13.2","0.00","0.00"
"10:29:59","84.8","72.4","66.5","29.93","308","3.6","7.2","0.00","0.00"
"10:34:58","84.5","72.2","66.7","29.93","311","2.4","6","0.00","0.00"
"10:39:58","85","73.4","68.4","29.93","300","2.3","7.2","0.00","0.00"
"10:44:58","85.7","72.6","65.2","29.93","298","3.4","8.4","0.00","0.00"
"10:49:57","85.5","72.5","65.2","29.92","280","3.7","8.1","0.00","0.00"
"10:54:58","86","73.3","66.1","29.92","313","3","6","0.00","0.00"
"10:59:56","86.4","73.4","65.3","29.93","331","5","12","0.00","0.00"
"11:04:58","86.5","73.5","65.6","29.93","296","2.7","7.2","0.00","0.00"
"11:09:59","86.7","73.8","65.6","29.93","332","3.5","16.1","0.00","0.00"
"11:14:59","86.4","73.3","65.2","29.93","335","4.5","13.2","0.00","0.00"
"11:19:56","85.7","73","66.1","29.93","350","4.7","8.4","0.00","0.00"
"11:24:59","85.2","72.9","66.7","29.93","319","3.9","8.4","0.00","0.00"
"11:29:56","86","73.6","66.7","29.93","355","3.7","8.4","0.00","0.00"
"11:34:59","86.6","73.9","66.1","29.93","330","5.3","12","0.00","0.00"
"11:39:58","86.8","73.5","64.9","29.93","295","3.3","6.9","0.00","0.00"
"11:44:56","87.2","73.3","63.6","29.93","330","4.2","15","0.00","0.00"
"11:49:58","87.4","73.2","62.8","29.93","335","2.9","6.9","0.00","0.00"
"11:54:57","88.2","73.6","62.3","29.93","288","3.1","7.2","0.00","0.00"
"11:59:59","87.3","72.4","61.4","29.93","335","4","7.2","0.00","0.00"
"12:04:58","87.7","73.1","62.2","29.93","343","3.5","8.4","0.00","0.00"
"12:09:59","88.1","72.5","60.2","29.93","310","5.4","15.6","0.00","0.00"
"12:14:58","88","72.7","60.6","29.93","333","4.1","16.1","0.00","0.00"
"12:19:56","89","72.9","59.3","29.92","310","3.5","12","0.00","0.00"
"12:24:56","89.4","73.1","58.8","29.92","298","2.1","7.2","0.00","0.00"
"12:29:58","89.6","72","56.5","29.92","351","4.3","15","0.00","0.00"
"12:34:57","88.6","70.5","55.2","29.92","350","5.5","18.4","0.00","0.00"
"12:39:57","88.1","70.1","55.3","29.92","338","4.3","12","0.00","0.00"
"12:44:56","88.3","70.6","56","29.93","328","4.5","12","0.00","0.00"
"12:49:59","89.1","70.2","53.8","29.93","333","5.9","17.3","0.00","0.00"
"12:54:58","89.6","70","52.8","29.93","338","4.9","15","0.00","0.00"
"12:59:57","89.4","68.4","50.2","29.93","318","6","15","0.00","0.00"
"13:04:59","89.3","68.4","50.5","29.93","353","5.2","13.2","0.00","0.00"
"13:09:56","89.6","68.8","50.6","29.93","324","4.2","12","0.00","0.00"
"13:14:57","89.8","68.8","50.3","29.93","289","5.4","15","0.00","0.00"
"13:19:59","89.9","69.6","51.4","29.93","332","5.3","15","0.00","0.00"
"13:24:58","89.3","68.6","50.7","29.93","338","5.9","16.1","0.00","0.00"
"13:29:57","90","69.8","51.6","29.93","350","5.1","15.6","0.00","0.00"
"13:34:56","90.2","69.7","51.2","29.93","0","3.8","16.1","0.00","0.00"
"13:39:59","90.6","70.1","51.1","29.93","344","3.2","10.8","0.00","0.00"
"13:44:59","90.6","69.6","50.2","29.93","348","3.4","12","0.00","0.00"
"13:49:58","90.4","69.1","49.8","29.93","350","6.9","17.3","0.00","0.00"
"13:54:57","90.1","68.6","49.4","29.93","347","6.2","18.4","0.00","0.00"
"13:59:56","90.1","68.5","49.2","29.93","332","4.6","13.2","0.00","0.00"
"14:04:59","90.1","68.5","49.2","29.93","303","3.8","10.8","0.00","0.00"
"14:09:59","90.2","68.5","49","29.93","312","5","18.4","0.00","0.00"
"14:14:59","91.1","70","50.3","29.93","301","3.2","14.4","0.00","0.00"
"14:19:58","91.5","69.7","49.1","29.93","317","3.5","15","0.00","0.00"
"14:24:57","91.2","68.3","47.2","29.93","342","4.8","15.6","0.00","0.00"
"14:29:56","91.1","68.3","47.4","29.93","339","5.4","18.4","0.00","0.00"
"14:34:59","91.3","67.7","46.1","29.93","326","4.4","15","0.00","0.00"
"14:39:59","91.2","68.1","46.8","29.93","317","4","15","0.00","0.00"
"14:44:58","91.5","68.2","46.6","29.93","335","5","16.8","0.00","0.00"
"14:49:57","91.2","68.4","47.4","29.93","341","4.6","17.3","0.00","0.00"
"14:54:57","91.4","67.9","46.3","29.93","347","5.5","15","0.00","0.00"
"14:59:56","91.5","68.2","46.8","29.93","346","4.6","17.3","0.00","0.00"
"15:04:59","91.7","67.6","45.5","29.93","316","4.7","19.2","0.00","0.00"
"15:09:59","91.4","66.7","44.5","29.93","336","7.2","19.6","0.00","0.00"
"15:14:55","91","66.5","44.7","29.93","335","5","15","0.00","0.00"
"15:19:58","91.6","66.9","44.5","29.93","343","4.2","15","0.00","0.00"
"15:24:57","92.1","67.1","44.2","29.93","357","3.6","16.8","0.00","0.00"
"15:29:59","91.9","66.2","43","29.93","348","5.8","17.3","0.00","0.00"
"15:34:59","91.9","66.6","43.5","29.93","352","3.9","12","0.00","0.00"
"15:39:58","92.2","66.5","43.1","29.93","338","5.7","17.3","0.00","0.00"
"15:44:58","91.6","65.4","42.2","29.93","353","5.7","16.1","0.00","0.00"
"15:49:57","91.7","65.6","42.5","29.93","337","5.4","12","0.00","0.00"
"15:54:56","92.4","66.8","43.2","29.93","316","2.6","7.2","0.00","0.00"
"15:59:58","92.8","66.4","42.1","29.93","350","4","16.8","0.00","0.00"
"16:04:57","92.9","66.5","42.1","29.93","340","3.8","17.3","0.00","0.00"
"16:09:58","92.6","65.8","41.4","29.93","287","4.5","16.1","0.00","0.00"
"16:14:58","92.4","66.3","42.4","29.93","352","5.5","13.2","0.00","0.00"
"16:19:57","92.3","66.4","42.6","29.93","351","3.8","10.8","0.00","0.00"
"16:24:56","92.4","66.2","42.2","29.93","317","3.2","8.4","0.00","0.00"
"16:29:59","92.5","67","43.3","29.93","344","2.6","12","0.00","0.00"
"16:34:58","92.4","65.3","40.9","29.93","301","5.1","11.5","0.00","0.00"
"16:39:58","92","65.6","42","29.93","332","4.7","13.2","0.00","0.00"
"16:44:57","91.8","65.9","42.8","29.93","284","3.2","8.1","0.00","0.00"
"16:49:56","92.1","66.3","42.8","29.93","341","4.4","12","0.00","0.00"
"16:54:59","92.2","65","40.8","29.93","337","5","12","0.00","0.00"
"16:59:58","92","65.2","41.5","29.93","335","3.7","8.4","0.00","0.00"
"17:04:57","91.9","65.7","42.3","29.93","346","6","12","0.00","0.00"
"17:09:58","91.8","66.5","43.5","29.93","352","3.7","11.5","0.00","0.00"
"17:14:58","91.7","66.4","43.5","29.93","2","2.5","6","0.00","0.00"
"17:19:57","91.9","66.5","43.5","29.93","338","3.1","10.8","0.00","0.00"
"17:24:57","91.9","66.3","43.2","29.93","331","4.2","10.4","0.00","0.00"
"17:29:56","91.7","65.7","42.6","29.93","330","3.6","7.2","0.00","0.00"
"17:34:59","91.6","66","43.1","29.93","327","4","13.2","0.00","0.00"
"17:39:59","91.4","65.7","42.8","29.93","320","4.3","10.8","0.00","0.00"
"17:44:59","91.5","65.8","43","29.93","341","3.5","8.4","0.00","0.00"
"17:49:58","91.5","66","43.3","29.93","330","3","12","0.00","0.00"
"17:54:57","91.4","65.6","42.7","29.93","338","4.4","12","0.00","0.00"
"17:59:56","91.2","65.1","42.3","29.93","327","3.2","8.4","0.00","0.00"
"18:04:56","91.1","66.4","44.3","29.93","341","1.3","7.2","0.00","0.00"
"18:09:57","91","65.5","43.1","29.93","353","3.5","12","0.00","0.00"
"18:14:57","90.8","64.9","42.6","29.93","339","3.6","8.4","0.00","0.00"
"18:19:57","90.4","65.4","43.8","29.93","341","2.4","7.2","0.00","0.00"
"18:24:56","90","65.4","44.3","29.93","283","2.6","7.2","0.00","0.00"
"18:29:55","89.7","65.2","44.4","29.93","348","2.8","8.4","0.00","0.00"
"18:34:59","89.3","64.8","44.6","29.93","350","4","8.4","0.00","0.00"
"18:39:58","88.9","64.8","45","29.93","343","3.9","10.8","0.00","0.00"
"18:44:58","88.6","65.5","46.4","29.93","338","1.4","5.8","0.00","0.00"
"18:49:56","88.4","65.3","46.5","29.93","338","3.3","7.2","0.00","0.00"
"18:54:59","88","64.6","46","29.93","342","2.6","8.4","0.00","0.00"
"18:59:58","87.7","64.6","46.4","29.94","338","2.9","8.4","0.00","0.00"
"19:04:56","87.3","64.3","46.4","29.94","350","3.4","10.8","0.00","0.00"
"19:09:57","87","64.3","47","29.94","8","1.6","8.1","0.00","0.00"
"19:14:58","86.7","64.3","47.4","29.95","351","2.9","9.6","0.00","0.00"
"19:19:56","86.4","64.3","47.8","29.95","340","1.8","5.8","0.00","0.00"
"19:24:56","86","63.6","47.3","29.95","339","1.8","7.2","0.00","0.00"
"19:29:59","85.7","63.9","48.2","29.95","359","0.5","4.8","0.00","0.00"
"19:34:58","85.5","64.1","48.8","29.95","8","0.7","3.6","0.00","0.00"
"19:39:57","85.3","64.1","49.2","29.95","8","0.5","3.6","0.00","0.00"
"19:44:57","85.1","63.9","49.2","29.95","9","0.3","3.6","0.00","0.00"
"19:49:57","84.9","64","49.7","29.95","9","0","0","0.00","0.00"
"19:54:57","84.6","64.1","50.4","29.95","9","0.2","2.4","0.00","0.00"
"19:59:57","84.3","63.8","50.3","29.95","19","0.1","1.2","0.00","0.00"
"20:04:57","83.9","64.3","51.8","29.95","100","0.1","1.2","0.00","0.00"
"20:09:58","83.4","64.2","52.5","29.95","100","0.3","1.2","0.00","0.00"
"20:14:56","83","63.6","52.1","29.96","100","0.2","1.2","0.00","0.00"
"20:19:59","82.6","64.2","53.8","29.96","99","1","2.4","0.00","0.00"
"20:24:56","82.2","64.1","54.5","29.96","98","0.8","2.4","0.00","0.00"
"20:29:55","81.8","64.1","55.1","29.96","98","0.2","1.2","0.00","0.00"
"20:34:56","81.4","64.5","56.7","29.96","98","0","0","0.00","0.00"
"20:39:57","81","64.3","57.1","29.96","98","0","1.2","0.00","0.00"
"20:44:57","80.4","64.5","58.5","29.96","98","0.6","2.4","0.00","0.00"
"20:49:57","79.5","64.7","60.5","29.96","98","0.5","1.2","0.00","0.00"
"20:54:57","78.9","64.7","61.9","29.96","98","0","0","0.00","0.00"
"20:59:59","78.3","64.7","62.9","29.97","98","0","0","0.00","0.00"
"21:04:57","77.9","64.9","64.4","29.97","98","0","0","0.00","0.00"
"21:09:57","77.5","65.1","65.5","29.97","98","0","0","0.00","0.00"
"21:14:57","77.1","64.9","66","29.98","98","0","0","0.00","0.00"
"21:19:59","76.6","64.4","66.1","29.98","98","0","0","0.00","0.00"
"21:24:58","76.1","64.7","67.6","29.98","98","0","0","0.00","0.00"
"21:29:56","75.8","64.7","68.4","29.98","98","0","0","0.00","0.00"
"21:34:59","75.5","64.7","69.2","29.98","98","0.6","2.4","0.00","0.00"
"21:39:57","75.4","64.8","69.7","29.98","98","1.4","2.4","0.00","0.00"
"21:44:56","75.4","64.9","70","29.99","98","0.9","2.4","0.00","0.00"
"21:49:58","75.3","65.2","71","29.99","98","0","1.2","0.00","0.00"
"21:54:57","75","65","71","29.99","98","0","0","0.00","0.00"
"21:59:59","74.6","64.7","71.3","29.99","98","0","0","0.00","0.00"
"22:04:57","74.2","64.8","72.6","29.99","98","0","0","0.00","0.00"
"22:09:57","73.9","64.9","73.5","29.99","98","0","1.2","0.00","0.00"
"22:14:57","73.8","65","74","30.00","98","0","0","0.00","0.00"
"22:19:59","73.6","64.9","74.3","30.00","98","0","0","0.00","0.00"
"22:24:58","73.3","64.9","75","30.00","98","0","0","0.00","0.00"
"22:29:56","73.1","65","75.8","30.00","98","0","0","0.00","0.00"
"22:34:59","72.8","65","76.6","30.00","98","0","0","0.00","0.00"
"22:39:58","72.5","64.9","77","30.00","98","0","0","0.00","0.00"
"22:44:57","72.4","65.1","77.7","30.01","98","0","0","0.00","0.00"
"22:49:59","72.4","65.2","78","30.01","98","0","0","0.00","0.00"
"22:54:57","72.4","65.2","78","30.01","98","0.6","1.2","0.00","0.00"
"22:59:59","72.3","65.1","78","30.01","98","0.1","1.2","0.00","0.00"
"23:04:57","72.3","65.1","78","30.00","98","0","0","0.00","0.00"
"23:09:57","72.3","65.1","78","30.00","98","0","0","0.00","0.00"
"23:14:57","72.2","65.2","78.6","30.00","98","0","0","0.00","0.00"
"23:19:59","72","65.1","79","30.00","98","0","0","0.00","0.00"
"23:24:58","71.7","64.9","79.2","30.00","98","0","0","0.00","0.00"
"23:29:57","71.4","64.9","80","30.00","98","0","0","0.00","0.00"
"23:34:59","71.1","65","81","30.00","98","0","0","0.00","0.00"
"23:39:58","71","64.9","81","30.00","98","0","0","0.00","0.00"
"23:44:57","70.9","64.8","81","30.00","98","0","0","0.00","0.00"
"23:49:58","70.8","64.7","81.1","30.00","98","0","0","0.00","0.00"
"23:54:57","70.6","64.8","82","30.00","98","0","0","0.00","0.00"
